| time (UTC) | temp F | wind direction | speed MPH | gust MPH | rain 1hr in | rain 24hr in | rain mn in | humidity % | barometer mb |
| 20260505090003 | 46 | 333 | 3.0 | 9.0 | 0.00 | 0.00 | 0.00 | 70 | 1012.1 |
| 20260505085503 | 46 | 321 | 2.0 | 9.0 | 0.00 | 0.00 | 0.00 | 69 | 1012.1 |
| 20260505085003 | 46 | 320 | 2.0 | 5.0 | 0.00 | 0.00 | 0.00 | 68 | 1012.1 |
| 20260505084502 | 46 | 323 | 2.0 | 5.0 | 0.00 | 0.00 | 0.00 | 68 | 1012.1 |
| 20260505084003 | 46 | 324 | 2.0 | 5.0 | 0.00 | 0.00 | 0.00 | 68 | 1012.0 |
| 20260505083502 | 46 | 328 | 2.0 | 6.0 | 0.00 | 0.00 | 0.00 | 67 | 1012.1 |
| 20260505082503 | 46 | 333 | 3.0 | 7.0 | 0.00 | 0.00 | 0.00 | 67 | 1012.1 |
| 20260505082003 | 46 | 344 | 2.0 | 5.0 | 0.00 | 0.00 | 0.00 | 66 | 1012.0 |
| 20260505081503 | 46 | 357 | 3.0 | 5.0 | 0.00 | 0.00 | 0.00 | 66 | 1011.9 |
| 20260505081003 | 46 | 354 | 4.0 | 7.0 | 0.00 | 0.00 | 0.00 | 66 | 1011.9 |
| 20260505080502 | 47 | 351 | 4.0 | 8.0 | 0.00 | 0.00 | 0.00 | 65 | 1011.7 |
| 20260505080003 | 47 | 355 | 4.0 | 8.0 | 0.00 | 0.00 | 0.00 | 65 | 1012.0 |
| 20260505075503 | 47 | 357 | 5.0 | 10.0 | 0.00 | 0.00 | 0.00 | 64 | 1012.1 |
| 20260505074003 | 47 | 355 | 7.0 | 12.0 | 0.00 | 0.00 | 0.00 | 63 | 1012.0 |
| 20260505073503 | 47 | 354 | 8.0 | 13.0 | 0.00 | 0.00 | 0.00 | 62 | 1012.1 |
| 20260505073003 | 48 | 357 | 8.0 | 14.0 | 0.00 | 0.00 | 0.00 | 61 | 1012.2 |
| 20260505072503 | 48 | 357 | 9.0 | 18.0 | 0.00 | 0.00 | 0.00 | 60 | 1012.1 |
| 20260505072004 | 48 | 358 | 10.0 | 18.0 | 0.00 | 0.00 | 0.00 | 58 | 1012.1 |
| 20260505071503 | 49 | 3 | 9.0 | 19.0 | 0.00 | 0.00 | 0.00 | 57 | 1012.1 |
| 20260505071003 | 49 | 357 | 8.0 | 19.0 | 0.00 | 0.00 | 0.00 | 56 | 1012.2 |
| 20260505070502 | 49 | 353 | 7.0 | 14.0 | 0.00 | 0.00 | 0.00 | 55 | 1012.1 |
| 20260505070003 | 49 | 358 | 6.0 | 13.0 | 0.00 | 0.00 | 0.00 | 55 | 1012.1 |
| 20260505065503 | 49 | 357 | 6.0 | 12.0 | 0.00 | 0.00 | 0.00 | 55 | 1012.0 |
| 20260505065003 | 49 | 2 | 6.0 | 12.0 | 0.00 | 0.00 | 0.00 | 55 | 1011.9 |
| 20260505064503 | 49 | 2 | 6.0 | 12.0 | 0.00 | 0.00 | 0.00 | 56 | 1011.8 |
| 20260505064003 | 49 | 355 | 5.0 | 11.0 | 0.00 | 0.00 | 0.00 | 56 | 1011.7 |
| 20260505063503 | 49 | 356 | 6.0 | 11.0 | 0.00 | 0.00 | 0.00 | 55 | 1011.7 |
| 20260505063003 | 49 | 4 | 4.0 | 9.0 | 0.00 | 0.00 | 0.00 | 55 | 1011.7 |
| 20260505062503 | 49 | 9 | 3.0 | 9.0 | 0.00 | 0.00 | 0.00 | 56 | 1011.7 |
| 20260505062003 | 49 | 7 | 4.0 | 9.0 | 0.00 | 0.00 | 0.00 | 56 | 1011.7 |
| 20260505061502 | 49 | 8 | 3.0 | 8.0 | 0.00 | 0.00 | 0.00 | 56 | 1011.6 |
| 20260505061003 | 50 | 15 | 2.0 | 5.0 | 0.00 | 0.00 | 0.00 | 57 | 1011.6 |
| 20260505060503 | 50 | 16 | 2.0 | 6.0 | 0.00 | 0.00 | 0.00 | 57 | 1011.6 |
| 20260505060003 | 50 | 16 | 2.0 | 8.0 | 0.00 | 0.00 | 0.00 | 57 | 1011.7 |
| 20260505055503 | 50 | 14 | 2.0 | 8.0 | 0.00 | 0.00 | 0.00 | 57 | 1011.5 |
| 20260505055003 | 50 | 19 | 2.0 | 4.0 | 0.00 | 0.00 | 0.00 | 57 | 1011.4 |
| 20260505054502 | 50 | 27 | 2.0 | 3.0 | 0.00 | 0.00 | 0.00 | 57 | 1011.3 |
| 20260505054003 | 50 | 16 | 2.0 | 5.0 | 0.00 | 0.00 | 0.00 | 57 | 1011.2 |
| 20260505053503 | 50 | 11 | 1.0 | 5.0 | 0.00 | 0.00 | 0.00 | 58 | 1011.2 |
| 20260505053003 | 50 | 29 | 1.0 | 4.0 | 0.00 | 0.00 | 0.00 | 58 | 1011.1 |
| 20260505052503 | 50 | 36 | 2.0 | 4.0 | 0.00 | 0.00 | 0.00 | 57 | 1011.1 |
| 20260505052003 | 50 | 28 | 2.0 | 6.0 | 0.00 | 0.00 | 0.00 | 57 | 1011.0 |
| 20260505051503 | 50 | 18 | 3.0 | 7.0 | 0.00 | 0.00 | 0.00 | 57 | 1011.0 |
| 20260505051003 | 50 | 14 | 3.0 | 10.0 | 0.00 | 0.00 | 0.00 | 57 | 1010.9 |
| 20260505050504 | 50 | 10 | 3.0 | 10.0 | 0.00 | 0.00 | 0.00 | 56 | 1010.9 |
| 20260505041503 | 50 | 29 | 2.0 | 4.0 | 0.00 | 0.00 | 0.00 | 57 | 1011.1 |
| 20260505041003 | 50 | 30 | 2.0 | 4.0 | 0.00 | 0.00 | 0.00 | 56 | 1011.2 |
| 20260505040503 | 50 | 20 | 2.0 | 9.0 | 0.00 | 0.00 | 0.00 | 56 | 1011.3 |
| 20260505040004 | 50 | 17 | 2.0 | 9.0 | 0.00 | 0.00 | 0.00 | 55 | 1011.3 |
| 20260505035503 | 50 | 25 | 2.0 | 5.0 | 0.00 | 0.00 | 0.00 | 55 | 1011.3 |
| 20260505035004 | 51 | 26 | 3.0 | 6.0 | 0.00 | 0.00 | 0.00 | 55 | 1011.3 |
| 20260505034503 | 51 | 20 | 3.0 | 6.0 | 0.00 | 0.00 | 0.00 | 54 | 1011.2 |
| 20260505034003 | 51 | 23 | 3.0 | 6.0 | 0.00 | 0.00 | 0.00 | 54 | 1011.1 |
| 20260505033503 | 51 | 27 | 3.0 | 7.0 | 0.00 | 0.00 | 0.00 | 54 | 1011.2 |
| 20260505032504 | 52 | 21 | 3.0 | 7.0 | 0.00 | 0.00 | 0.00 | 53 | 1011.1 |
| 20260505032004 | 52 | 26 | 4.0 | 7.0 | 0.00 | 0.00 | 0.00 | 54 | 1011.1 |
| 20260505031504 | 52 | 21 | 4.0 | 12.0 | 0.00 | 0.00 | 0.00 | 53 | 1011.2 |
| 20260505031003 | 52 | 12 | 5.0 | 12.0 | 0.00 | 0.00 | 0.00 | 53 | 1011.1 |
| 20260505030503 | 52 | 4 | 5.0 | 10.0 | 0.00 | 0.00 | 0.00 | 53 | 1011.3 |
| 20260505030004 | 52 | 5 | 5.0 | 12.0 | 0.00 | 0.00 | 0.00 | 53 | 1011.4 |
| 20260505025004 | 53 | 3 | 6.0 | 16.0 | 0.00 | 0.00 | 0.00 | 52 | 1011.1 |
| 20260505024004 | 53 | 7 | 6.0 | 14.0 | 0.00 | 0.00 | 0.00 | 52 | 1011.1 |
| 20260505023004 | 54 | 15 | 5.0 | 16.0 | 0.00 | 0.00 | 0.00 | 50 | 1010.8 |
| 20260505022004 | 54 | 11 | 5.0 | 14.0 | 0.00 | 0.00 | 0.00 | 48 | 1010.6 |
| 20260505021503 | 55 | 13 | 5.0 | 13.0 | 0.00 | 0.00 | 0.00 | 47 | 1010.5 |
| 20260505021003 | 55 | 14 | 5.0 | 13.0 | 0.00 | 0.00 | 0.00 | 47 | 1010.3 |
| 20260505020003 | 56 | 17 | 6.0 | 13.0 | 0.00 | 0.00 | 0.00 | 47 | 1009.6 |
| 20260505015503 | 56 | 15 | 7.0 | 15.0 | 0.00 | 0.00 | 0.00 | 46 | 1009.3 |
| 20260505015004 | 56 | 11 | 7.0 | 15.0 | 0.00 | 0.00 | 0.00 | 45 | 1009.4 |
| 20260505014504 | 57 | 17 | 7.0 | 20.0 | 0.00 | 0.00 | 0.00 | 45 | 1009.3 |
| 20260505014003 | 58 | 24 | 7.0 | 20.0 | 0.00 | 0.00 | 0.00 | 44 | 1009.2 |
| 20260505013503 | 58 | 25 | 5.0 | 15.0 | 0.00 | 0.00 | 0.00 | 45 | 1009.4 |
| 20260505013003 | 59 | 20 | 4.0 | 9.0 | 0.00 | 0.00 | 0.00 | 45 | 1009.1 |
| 20260505012504 | 59 | 22 | 5.0 | 14.0 | 0.00 | 0.00 | 0.00 | 45 | 1009.2 |
| 20260505011504 | 59 | 9 | 6.0 | 14.0 | 0.00 | 0.00 | 0.00 | 45 | 1008.9 |
| 20260505011003 | 59 | 8 | 6.0 | 15.0 | 0.00 | 0.00 | 0.00 | 44 | 1008.6 |
| 20260505010503 | 59 | 4 | 7.0 | 16.0 | 0.00 | 0.00 | 0.00 | 45 | 1008.3 |
| 20260505010004 | 59 | 3 | 7.0 | 17.0 | 0.00 | 0.00 | 0.00 | 45 | 1008.5 |
| 20260505005504 | 60 | 4 | 8.0 | 19.0 | 0.00 | 0.00 | 0.00 | 45 | 1008.2 |
| 20260505005004 | 60 | 5 | 8.0 | 19.0 | 0.00 | 0.00 | 0.00 | 45 | 1008.0 |
| 20260505004004 | 60 | 4 | 8.0 | 18.0 | 0.00 | 0.00 | 0.00 | 45 | 1008.0 |
| 20260505003504 | 60 | 4 | 9.0 | 19.0 | 0.00 | 0.00 | 0.00 | 45 | 1007.9 |
| 20260505003003 | 60 | 4 | 8.0 | 19.0 | 0.00 | 0.00 | 0.00 | 45 | 1007.9 |
| 20260505002504 | 61 | 9 | 6.0 | 20.0 | 0.00 | 0.00 | 0.00 | 45 | 1007.9 |
| 20260505002004 | 61 | 19 | 6.0 | 20.0 | 0.00 | 0.00 | 0.00 | 44 | 1007.7 |
| 20260505001504 | 61 | 15 | 7.0 | 20.0 | 0.00 | 0.00 | 0.00 | 43 | 1007.8 |
| 20260505000504 | 62 | 7 | 11.0 | 22.0 | 0.00 | 0.00 | 0.00 | 42 | 1007.6 |
| 20260505000004 | 63 | 10 | 9.0 | 22.0 | 0.00 | 0.00 | 0.00 | 40 | 1007.6 |
| 20260504235503 | 64 | 20 | 6.0 | 14.0 | 0.00 | 0.00 | 0.00 | 39 | 1007.5 |
| 20260504235004 | 64 | 13 | 7.0 | 16.0 | 0.00 | 0.00 | 0.00 | 39 | 1007.4 |
| 20260504233504 | 65 | 10 | 8.0 | 19.0 | 0.00 | 0.00 | 0.00 | 38 | 1007.2 |
| 20260504233003 | 66 | 5 | 8.0 | 19.0 | 0.00 | 0.00 | 0.00 | 37 | 1007.2 |
| 20260504232504 | 66 | 12 | 7.0 | 21.0 | 0.00 | 0.00 | 0.00 | 36 | 1007.1 |
| 20260504231504 | 67 | 18 | 7.0 | 15.0 | 0.00 | 0.00 | 0.00 | 35 | 1007.0 |
| 20260504231004 | 67 | 21 | 7.0 | 15.0 | 0.00 | 0.00 | 0.00 | 34 | 1006.9 |
| 20260504230503 | 67 | 18 | 7.0 | 15.0 | 0.00 | 0.00 | 0.00 | 35 | 1006.9 |
| 20260504230004 | 68 | 21 | 6.0 | 15.0 | 0.00 | 0.00 | 0.00 | 34 | 1006.9 |
| 20260504225503 | 68 | 29 | 5.0 | 11.0 | 0.00 | 0.00 | 0.00 | 35 | 1006.8 |
| 20260504225003 | 67 | 28 | 7.0 | 12.0 | 0.00 | 0.00 | 0.00 | 34 | 1006.8 |
| 20260504224504 | 68 | 17 | 6.0 | 15.0 | 0.00 | 0.00 | 0.00 | 34 | 1006.7 |
| 20260504224004 | 68 | 14 | 6.0 | 15.0 | 0.00 | 0.00 | 0.00 | 34 | 1006.7 |
| 20260504223504 | 69 | 10 | 7.0 | 14.0 | 0.00 | 0.00 | 0.00 | 33 | 1006.6 |
| 20260504223004 | 68 | 2 | 8.0 | 15.0 | 0.00 | 0.00 | 0.00 | 33 | 1006.5 |
| 20260504222504 | 68 | 3 | 7.0 | 15.0 | 0.00 | 0.00 | 0.00 | 33 | 1006.5 |
| 20260504222003 | 68 | 12 | 6.0 | 15.0 | 0.00 | 0.00 | 0.00 | 33 | 1006.4 |
| 20260504221503 | 68 | 17 | 6.0 | 14.0 | 0.00 | 0.00 | 0.00 | 33 | 1006.4 |
| 20260504221004 | 68 | 15 | 7.0 | 15.0 | 0.00 | 0.00 | 0.00 | 32 | 1006.4 |
| 20260504220503 | 68 | 11 | 8.0 | 15.0 | 0.00 | 0.00 | 0.00 | 32 | 1006.3 |
| 20260504220003 | 69 | 7 | 8.0 | 15.0 | 0.00 | 0.00 | 0.00 | 32 | 1006.4 |
| 20260504215505 | 69 | 10 | 7.0 | 15.0 | 0.00 | 0.00 | 0.00 | 32 | 1006.4 |
| 20260504215003 | 69 | 22 | 6.0 | 14.0 | 0.00 | 0.00 | 0.00 | 33 | 1006.4 |
| 20260504214504 | 69 | 33 | 6.0 | 13.0 | 0.00 | 0.00 | 0.00 | 31 | 1006.3 |
| 20260504214005 | 70 | 27 | 6.0 | 14.0 | 0.00 | 0.00 | 0.00 | 32 | 1006.5 |
| 20260504213503 | 69 | 11 | 7.0 | 16.0 | 0.00 | 0.00 | 0.00 | 32 | 1006.6 |
| 20260504213004 | 69 | 15 | 7.0 | 16.0 | 0.00 | 0.00 | 0.00 | 32 | 1006.5 |
| 20260504212504 | 69 | 35 | 6.0 | 12.0 | 0.00 | 0.00 | 0.00 | 32 | 1006.4 |
| 20260504211504 | 69 | 11 | 7.0 | 19.0 | 0.00 | 0.00 | 0.00 | 31 | 1006.5 |
| 20260504211003 | 69 | 359 | 10.0 | 19.0 | 0.00 | 0.00 | 0.00 | 31 | 1006.5 |
| 20260504210504 | 69 | 358 | 11.0 | 19.0 | 0.00 | 0.00 | 0.00 | 30 | 1006.5 |
| 20260504210004 | 69 | 359 | 10.0 | 19.0 | 0.00 | 0.00 | 0.00 | 31 | 1006.6 |
| 20260504205457 | 70 | 3 | 8.0 | 16.0 | 0.00 | 0.00 | 0.00 | 31 | 1006.6 |
| 20260504204956 | 70 | 13 | 6.0 | 16.0 | 0.00 | 0.00 | 0.00 | 31 | 1006.7 |
| 20260504203959 | 70 | 26 | 6.0 | 15.0 | 0.00 | 0.00 | 0.00 | 30 | 1006.7 |
| 20260504203457 | 70 | 13 | 7.0 | 16.0 | 0.00 | 0.00 | 0.00 | 30 | 1006.7 |
| 20260504202957 | 70 | 12 | 6.0 | 16.0 | 0.00 | 0.00 | 0.00 | 31 | 1006.7 |
| 20260504202457 | 70 | 15 | 7.0 | 20.0 | 0.00 | 0.00 | 0.00 | 31 | 1006.8 |
| 20260504201957 | 70 | 4 | 9.0 | 20.0 | 0.00 | 0.00 | 0.00 | 31 | 1006.8 |
| 20260504200957 | 69 | 4 | 10.0 | 19.0 | 0.00 | 0.00 | 0.00 | 31 | 1006.9 |
| 20260504200457 | 69 | 358 | 11.0 | 19.0 | 0.00 | 0.00 | 0.00 | 30 | 1006.8 |
| 20260504195457 | 70 | 6 | 10.0 | 22.0 | 0.00 | 0.00 | 0.00 | 31 | 1007.0 |
| 20260504195005 | 70 | 4 | 10.0 | 22.0 | 0.00 | 0.00 | 0.00 | 30 | 1006.9 |
| 20260504194457 | 70 | 2 | 10.0 | 20.0 | 0.00 | 0.00 | 0.00 | 32 | 1006.9 |
| 20260504193957 | 71 | 5 | 8.0 | 20.0 | 0.00 | 0.00 | 0.00 | 30 | 1006.6 |
| 20260504193457 | 71 | 18 | 6.0 | 16.0 | 0.00 | 0.00 | 0.00 | 32 | 1006.6 |
| 20260504192457 | 71 | 22 | 7.0 | 16.0 | 0.00 | 0.00 | 0.00 | 31 | 1006.5 |
| 20260504191957 | 71 | 15 | 7.0 | 13.0 | 0.00 | 0.00 | 0.00 | 31 | 1006.5 |
| 20260504190957 | 70 | 22 | 8.0 | 18.0 | 0.00 | 0.00 | 0.00 | 30 | 1006.4 |
| 20260504190457 | 70 | 33 | 7.0 | 18.0 | 0.00 | 0.00 | 0.00 | 32 | 1006.3 |
| 20260504184958 | 70 | 12 | 8.0 | 16.0 | 0.00 | 0.00 | 0.00 | 33 | 1006.2 |
| 20260504184457 | 69 | 14 | 9.0 | 17.0 | 0.00 | 0.00 | 0.00 | 33 | 1006.3 |
| 20260504183457 | 70 | 10 | 8.0 | 20.0 | 0.00 | 0.00 | 0.00 | 32 | 1006.2 |
| 20260504182957 | 70 | 18 | 8.0 | 20.0 | 0.00 | 0.00 | 0.00 | 35 | 1006.2 |
| 20260504181958 | 69 | 6 | 9.0 | 21.0 | 0.00 | 0.00 | 0.00 | 35 | 1006.2 |
| 20260504181457 | 69 | 7 | 9.0 | 21.0 | 0.00 | 0.00 | 0.00 | 34 | 1006.2 |
| 20260504180957 | 69 | 8 | 9.0 | 20.0 | 0.00 | 0.00 | 0.00 | 36 | 1006.2 |
| 20260504180457 | 69 | 8 | 9.0 | 20.0 | 0.00 | 0.00 | 0.00 | 38 | 1006.4 |
| 20260504175957 | 69 | 11 | 8.0 | 20.0 | 0.00 | 0.00 | 0.00 | 38 | 1006.3 |
| 20260504175457 | 69 | 14 | 8.0 | 17.0 | 0.00 | 0.00 | 0.00 | 40 | 1006.4 |
| 20260504174957 | 68 | 10 | 8.0 | 20.0 | 0.00 | 0.00 | 0.00 | 41 | 1006.4 |
| 20260504174457 | 68 | 2 | 9.0 | 20.0 | 0.00 | 0.00 | 0.00 | 41 | 1006.4 |
| 20260504173956 | 68 | 4 | 9.0 | 20.0 | 0.00 | 0.00 | 0.00 | 41 | 1006.5 |
| 20260504173457 | 68 | 6 | 9.0 | 20.0 | 0.00 | 0.00 | 0.00 | 42 | 1006.6 |
| 20260504172957 | 67 | 359 | 11.0 | 21.0 | 0.00 | 0.00 | 0.00 | 42 | 1006.5 |
| 20260504172457 | 67 | 354 | 12.0 | 22.0 | 0.00 | 0.00 | 0.00 | 42 | 1006.6 |
| 20260504170957 | 68 | 355 | 12.0 | 28.0 | 0.00 | 0.00 | 0.00 | 40 | 1006.5 |
| 20260504170458 | 69 | 358 | 10.0 | 18.0 | 0.00 | 0.00 | 0.00 | 40 | 1006.5 |
| 20260504150957 | 63 | 293 | 4.0 | 7.0 | 0.00 | 0.00 | 0.00 | 45 | 1006.0 |
| 20260504140958 | 55 | 270 | 2.0 | 5.0 | 0.00 | 0.00 | 0.00 | 60 | 1006.3 |
| 20260504140457 | 55 | 273 | 2.0 | 5.0 | 0.00 | 0.00 | 0.00 | 61 | 1006.3 |
| 20260504130457 | 47 | 261 | 2.0 | 4.0 | 0.00 | 0.00 | 0.00 | 74 | 1006.1 |
| 20260504110458 | 43 | 314 | 0.0 | 1.0 | 0.00 | 0.00 | 0.00 | 82 | 1006.0 |
| 20260504100458 | 45 | 299 | 0.0 | 1.0 | 0.00 | 0.00 | 0.00 | 78 | 1006.1 |